[[{"header":{"parameterUnit":"m.s-1","parameterCategory":1,"la1":30.2991,"la2":30.254,"lo1":-89.0895,"lo2":-89.0444,"dy":0.0017,"dx":0.0017,"nx":28,"ny":28,"refTime":"2025-12-26T03:00:00:Z","depth":0,"parameterNumber":2,"parameterNumberName":"U-component_of_WINDS"},"data":[0,0,0,0,0,0,0,0,0,0,0,0,0,0,0,0,0,0,0,0,0,0,0,0,0,0,0,0,0,0,0,0,0,0,0,0,0,0,0,0,0,0,0,0,0,0,0,0,0,0,0,0,0,0,0,0,0,0,-0.2446,-0.2444,0,-0.227,-0.2267,-0.2265,-0.218,-0.218,-0.218,-0.218,-0.1995,-0.1991,-0.1986,0,0,0,0,0,0,0,0,0,0,0,0,0,-0.2707,-0.2702,-0.2446,-0.2444,-0.2442,-0.227,-0.2267,-0.2265,-0.218,-0.218,-0.218,-0.218,-0.1997,-0.1991,-0.1985,0,0,0,0,0,0,0,0,0,0,0,0,0,-0.2568,-0.2701,-0.2447,-0.2379,-0.2371,-0.227,-0.2267,-0.2264,-0.218,-0.218,-0.218,-0.218,-0.1999,-0.1992,-0.1985,-0.1937,0,0,-0.1962,-0.1959,0,0,0,0,0,0,0,0,-0.2576,-0.2559,-0.2391,-0.2383,-0.2374,-0.2247,-0.2292,-0.2155,-0.218,-0.2252,-0.218,-0.218,-0.2079,-0.2065,-0.2031,-0.1929,-0.1921,-0.1961,-0.1957,-0.1953,-0.1951,0,0,0,0,0,0,0,-0.2586,-0.2566,-0.2376,-0.2389,-0.2378,-0.2356,-0.2336,-0.2265,-0.2167,-0.2246,-0.2239,-0.222,-0.2074,-0.2039,-0.2026,-0.1918,-0.1961,-0.1955,-0.195,-0.1947,-0.1766,-0.1766,0,0,0,0,0,0,-0.2607,-0.2574,-0.2382,-0.2371,-0.2478,-0.2351,-0.2329,-0.2288,-0.2168,-0.215,-0.222,-0.2216,-0.2051,-0.2035,-0.202,-0.1956,-0.1954,-0.1947,-0.1942,-0.1767,-0.1766,-0.1766,0,0,0,0,0,0,-0.2613,-0.2591,-0.2389,-0.2471,-0.2443,-0.2347,-0.2301,-0.2284,-0.2248,-0.2148,-0.213,-0.2202,-0.2051,-0.203,-0.1958,-0.1948,-0.1943,-0.1936,-0.1767,-0.1767,-0.1766,-0.1828,0,0,0,0,0,0,-0.2621,-0.2593,-0.2575,-0.2471,-0.2439,-0.2332,-0.23,-0.2281,-0.2236,-0.223,-0.2126,-0.2109,-0.2049,-0.197,-0.1951,-0.1938,-0.1931,-0.1768,-0.1767,-0.1766,-0.1826,-0.183,-0.1833,0,0,0,0,0,-0.263,-0.2599,-0.2575,-0.2552,-0.2415,-0.2332,-0.2313,-0.2246,-0.2236,-0.2216,-0.2152,-0.2112,-0.1953,-0.1963,-0.1941,-0.1926,-0.1768,-0.1767,-0.1766,-0.1825,-0.1829,-0.1832,0,0,0,0,0,0,-0.2703,-0.2584,-0.2556,-0.249,-0.2422,-0.2317,-0.229,-0.2253,-0.2185,-0.2182,-0.21,-0.2077,-0.2013,-0.1962,-0.1976,-0.1873,-0.1856,-0.1851,-0.1909,-0.1912,-0.1915,-0.1928,-0.1924,0,0,0,0,0,-0.2712,-0.2655,-0.2554,-0.2506,-0.2473,-0.2388,-0.2349,-0.2303,-0.2229,-0.2199,-0.2129,-0.2057,-0.199,-0.1948,-0.1881,-0.1819,-0.1794,-0.1797,-0.18,-0.1803,-0.1799,-0.1762,-0.1761,-0.1763,-0.1763,-0.1763,0,0,-0.2729,-0.2657,-0.2626,-0.2519,-0.246,-0.2402,-0.2364,-0.2304,-0.226,-0.2189,-0.2118,-0.2064,-0.1978,-0.1911,-0.1878,-0.1866,-0.1794,-0.1802,-0.1805,-0.18,-0.1761,-0.1761,-0.1761,-0.1763,-0.1763,-0.1763,0,0,-0.273,-0.267,-0.2623,-0.2566,-0.2478,-0.2422,-0.2411,-0.2312,-0.2274,-0.2201,-0.2146,-0.2092,-0.1979,-0.192,-0.1875,-0.1855,-0.1815,-0.1835,-0.185,-0.1814,-0.1814,-0.1814,-0.1805,-0.1803,-0.1832,-0.1832,-0.1832,0,-0.2762,-0.2673,-0.2604,-0.2547,-0.2501,-0.2436,-0.2387,-0.2334,-0.2229,-0.2198,-0.2187,-0.2044,-0.1982,-0.1899,-0.1895,-0.1861,-0.1844,-0.1846,-0.182,-0.1819,-0.1817,-0.1808,-0.1805,-0.1835,-0.1834,-0.1834,-0.1834,0,-0.2716,-0.2656,-0.2628,-0.2529,-0.248,-0.2428,-0.2349,-0.2308,-0.2266,-0.2211,-0.2137,-0.206,-0.1976,-0.1953,-0.1912,-0.1864,-0.186,-0.1836,-0.1817,-0.1821,-0.1811,-0.1807,-0.1839,-0.1838,-0.1837,-0.1836,0,0,-0.2758,-0.2622,-0.2612,-0.2566,-0.2465,-0.2416,-0.2361,-0.228,-0.2245,-0.2175,-0.2125,-0.2032,-0.2009,-0.1958,-0.1909,-0.1878,-0.1865,-0.1857,-0.1854,-0.1861,-0.1807,-0.1826,-0.1823,-0.1839,-0.1838,-0.1838,-0.1814,0,-0.2744,-0.2642,-0.2578,-0.2501,-0.2444,-0.2381,-0.2332,-0.2264,-0.2211,-0.2154,-0.2094,-0.2029,-0.2004,-0.1973,-0.1939,-0.1874,-0.1853,-0.1875,-0.1791,-0.1789,-0.1814,-0.1818,-0.1837,-0.1818,-0.181,-0.1809,-0.1809,0,-0.2714,-0.2647,-0.2565,-0.247,-0.2443,-0.2401,-0.2321,-0.2267,-0.2188,-0.2152,-0.2096,-0.2047,-0.1984,-0.1971,-0.1883,-0.19,-0.1861,-0.1824,-0.1822,-0.181,-0.1799,-0.1806,-0.1811,-0.1808,-0.1802,-0.1803,-0.1803,0,-0.2752,-0.264,-0.2577,-0.2539,-0.2427,-0.2398,-0.235,-0.2271,-0.2227,-0.2157,-0.2127,-0.205,-0.2008,-0.195,-0.1881,-0.1878,-0.1799,-0.1781,-0.1766,-0.1768,-0.1751,-0.1753,-0.175,-0.1728,-0.1729,-0.1729,-0.1729,0,-0.2743,-0.2695,-0.2592,-0.2553,-0.2497,-0.2423,-0.237,-0.2316,-0.2246,-0.2195,-0.2135,-0.2088,-0.2,-0.1942,-0.1887,-0.1822,-0.1804,-0.1771,-0.1757,-0.1776,-0.178,-0.1749,-0.1748,-0.1728,-0.1728,-0.1728,-0.1728,0,-0.2775,-0.2705,-0.2631,-0.2531,-0.2504,-0.2467,-0.2381,-0.234,-0.2284,-0.2219,-0.2199,-0.2111,-0.2039,-0.1965,-0.1867,-0.183,-0.1766,-0.1747,-0.1793,-0.1785,-0.1774,-0.1776,-0.1749,-0.1742,-0.1728,-0.1728,-0.1728,0,-0.2774,-0.2736,-0.2632,-0.2593,-0.2547,-0.2486,-0.244,-0.2366,-0.232,-0.2228,-0.2197,-0.2121,-0.2056,-0.1944,-0.187,-0.1795,-0.1773,-0.1769,-0.1761,-0.1781,-0.1771,-0.1774,-0.177,-0.1772,-0.1772,-0.1773,-0.1773,0,-0.2779,-0.2745,-0.2683,-0.2607,-0.2555,-0.2492,-0.2426,-0.2398,-0.231,-0.2262,-0.2189,-0.2138,-0.2039,-0.1964,-0.188,-0.1828,-0.1785,-0.1776,-0.1768,-0.1787,-0.1815,-0.1798,-0.18,-0.1777,-0.1776,-0.1776,-0.1776,-0.1776,-0.2793,-0.2756,-0.2677,-0.2608,-0.2552,-0.2492,-0.2448,-0.2387,-0.2325,-0.2239,-0.2198,-0.2124,-0.2045,-0.1928,-0.1878,-0.1818,-0.1806,-0.1795,-0.1792,-0.179,-0.1794,-0.1825,-0.1802,-0.1802,-0.1802,-0.1801,-0.1801,0,-0.2794,-0.274,-0.2678,-0.2589,-0.2535,-0.2501,-0.2427,-0.2383,-0.2319,-0.225,-0.2187,-0.2102,-0.2029,-0.195,-0.1871,-0.1838,-0.1817,-0.182,-0.1821,-0.181,-0.181,-0.1824,-0.1839,-0.1839,-0.1839,-0.1839,-0.1839,-0.1839,-0.2788,-0.2723,-0.2681,-0.2587,-0.2532,-0.246,-0.2421,-0.2365,-0.2309,-0.2217,-0.2156,-0.2105,-0.2031,-0.1947,-0.1878,-0.1856,-0.183,-0.1839,-0.1811,-0.1813,-0.181,-0.1807,-0.182,-0.1834,-0.1834,-0.1816,-0.1816,-0.1816]},{"header":{"parameterUnit":"m.s-1","parameterCategory":1,"la1":30.2991,"la2":30.254,"lo1":-89.0895,"lo2":-89.0444,"dy":0.0017,"dx":0.0017,"nx":28,"ny":28,"refTime":"2025-12-26T03:00:00:Z","depth":0,"parameterNumber":3,"parameterNumberName":"V-component_of_WINDS"},"data":[0,0,0,0,0,0,0,0,0,0,0,0,0,0,0,0,0,0,0,0,0,0,0,0,0,0,0,0,0,0,0,0,0,0,0,0,0,0,0,0,0,0,0,0,0,0,0,0,0,0,0,0,0,0,0,0,0,0,2.8751,2.8751,0,2.8766,2.8766,2.8766,2.8748,2.8748,2.8747,2.8746,2.876,2.8761,2.8762,0,0,0,0,0,0,0,0,0,0,0,0,0,2.8704,2.8705,2.875,2.8751,2.8751,2.8766,2.8766,2.8766,2.8748,2.8747,2.8747,2.8746,2.8759,2.876,2.8762,0,0,0,0,0,0,0,0,0,0,0,0,0,2.8722,2.8706,2.875,2.8744,2.8743,2.8765,2.8766,2.8766,2.8748,2.8747,2.8746,2.8746,2.8759,2.876,2.8762,2.879,0,0,2.8766,2.8767,0,0,0,0,0,0,0,0,2.8721,2.8724,2.8745,2.8744,2.8744,2.8754,2.8754,2.8774,2.8749,2.8746,2.8746,2.8745,2.8758,2.876,2.8765,2.8791,2.8792,2.8766,2.8767,2.8768,2.8768,0,0,0,0,0,0,0,2.872,2.8723,2.8756,2.8745,2.8745,2.8739,2.8741,2.8758,2.8758,2.8747,2.8745,2.8748,2.8758,2.8763,2.8765,2.8792,2.8766,2.8768,2.8768,2.8769,2.8843,2.8844,0,0,0,0,0,0,2.872,2.8722,2.8756,2.8757,2.873,2.8741,2.8743,2.8752,2.8757,2.8757,2.8748,2.8747,2.8761,2.8763,2.8765,2.8801,2.8768,2.8769,2.877,2.8842,2.8843,2.8845,0,0,0,0,0,0,2.8719,2.8723,2.8755,2.8739,2.8743,2.8743,2.8753,2.8753,2.8758,2.8759,2.8758,2.8754,2.8761,2.8763,2.8785,2.8801,2.877,2.8771,2.8841,2.8843,2.8844,2.8871,0,0,0,0,0,0,2.8718,2.8723,2.8734,2.874,2.8744,2.8775,2.8754,2.8754,2.8761,2.8759,2.8764,2.8764,2.876,2.8783,2.8786,2.8802,2.8772,2.8839,2.8842,2.8844,2.8869,2.8873,2.8877,0,0,0,0,0,2.8716,2.8741,2.8735,2.8739,2.8758,2.8776,2.8778,2.8774,2.8762,2.8774,2.8774,2.8764,2.8798,2.8785,2.8789,2.8806,2.8838,2.8841,2.8843,2.8867,2.8872,2.8877,0,0,0,0,0,0,2.8736,2.8741,2.8735,2.8762,2.8769,2.8773,2.8787,2.878,2.879,2.8788,2.8781,2.8782,2.8805,2.8807,2.8792,2.8834,2.8816,2.882,2.8833,2.8838,2.8842,2.8842,2.8773,0,0,0,0,0,2.8744,2.8759,2.8762,2.8785,2.8789,2.8788,2.8795,2.8791,2.8798,2.88,2.8802,2.8809,2.8821,2.8829,2.884,2.8868,2.8869,2.8881,2.8885,2.8889,2.8893,2.8909,2.8915,2.8853,2.8853,2.8853,0,0,2.876,2.8764,2.8774,2.8789,2.8794,2.8809,2.879,2.8807,2.8818,2.8802,2.8824,2.8825,2.8832,2.8857,2.8868,2.8859,2.891,2.8892,2.8895,2.8897,2.8912,2.8918,2.8923,2.8854,2.8854,2.8854,0,0,2.8797,2.8801,2.8822,2.8828,2.8836,2.8834,2.8839,2.8845,2.8846,2.8867,2.8856,2.8868,2.8889,2.8895,2.89,2.8939,2.8931,2.8942,2.8966,2.8982,2.8987,2.8991,2.9007,2.9012,2.8946,2.8946,2.8946,0,2.8816,2.8839,2.8834,2.8852,2.8859,2.8846,2.8867,2.8872,2.8883,2.8888,2.8878,2.8905,2.8908,2.8935,2.8944,2.8948,2.8954,2.8943,2.8986,2.8991,2.8995,2.901,2.9015,2.8947,2.8947,2.8947,2.8947,0,2.8863,2.8879,2.8894,2.8907,2.8915,2.8935,2.8932,2.8941,2.8936,2.8935,2.8957,2.896,2.8973,2.8978,2.8973,2.9005,2.8999,2.8988,2.897,2.9002,2.9016,2.9022,2.895,2.8949,2.8949,2.8948,0,0,2.8915,2.8924,2.893,2.8936,2.8943,2.8955,2.8973,2.8986,2.8995,2.9002,2.9018,2.9036,2.9026,2.9032,2.9027,2.904,2.9073,2.9027,2.9027,2.9037,2.911,2.9121,2.9127,2.9066,2.9067,2.9068,2.911,0,2.8954,2.8988,2.8983,2.9015,2.9031,2.9018,2.9034,2.904,2.904,2.9052,2.9051,2.9065,2.905,2.9054,2.9066,2.9066,2.9088,2.9063,2.9082,2.9083,2.9084,2.9134,2.9145,2.9185,2.9115,2.9116,2.9117,0,2.9005,2.9016,2.905,2.9056,2.9062,2.9077,2.9089,2.91,2.9106,2.9105,2.9113,2.9105,2.9123,2.9103,2.9129,2.9112,2.9119,2.912,2.9121,2.9125,2.9104,2.9141,2.9197,2.9204,2.9125,2.9124,2.9124,0,2.9043,2.9065,2.9089,2.9094,2.91,2.9111,2.9115,2.912,2.9128,2.9137,2.9143,2.9154,2.916,2.9169,2.9164,2.915,2.9191,2.917,2.9191,2.9192,2.9203,2.9203,2.9263,2.9203,2.9203,2.9203,2.9203,0,2.9089,2.9111,2.9106,2.9121,2.9145,2.9138,2.9162,2.9163,2.9168,2.9183,2.9171,2.9185,2.9177,2.919,2.9186,2.9209,2.9211,2.9211,2.921,2.9214,2.9214,2.922,2.9218,2.9204,2.9204,2.9204,2.9203,0,2.9136,2.9134,2.9159,2.9163,2.9165,2.9183,2.9186,2.92,2.9198,2.9217,2.9221,2.9219,2.9233,2.9229,2.9244,2.9242,2.9271,2.9265,2.927,2.9269,2.9291,2.929,2.936,2.9369,2.9301,2.9302,2.9302,0,2.9167,2.9184,2.919,2.92,2.9204,2.9219,2.9228,2.9221,2.923,2.9239,2.9252,2.9265,2.9276,2.93,2.93,2.9312,2.9308,2.9331,2.931,2.9313,2.9311,2.9311,2.9314,2.9336,2.9337,2.9338,2.9338,0,2.9223,2.9221,2.9234,2.9247,2.9258,2.9268,2.9276,2.9284,2.9278,2.9289,2.9304,2.9313,2.9329,2.9343,2.9354,2.9356,2.9347,2.9345,2.9351,2.9356,2.9359,2.936,2.9284,2.9344,2.9343,2.9343,2.9343,2.9342,2.9265,2.928,2.9287,2.9302,2.9308,2.9316,2.933,2.933,2.9343,2.9357,2.9351,2.9369,2.9375,2.9388,2.9392,2.9406,2.9397,2.9405,2.9408,2.941,2.9414,2.9354,2.9407,2.9407,2.9407,2.9407,2.9407,0,2.9322,2.9326,2.934,2.9353,2.9365,2.9354,2.9363,2.9374,2.939,2.9396,2.9407,2.9425,2.9439,2.9439,2.9452,2.9463,2.9459,2.9467,2.9467,2.9468,2.942,2.9415,2.947,2.947,2.947,2.947,2.947,2.947,2.9354,2.9379,2.9378,2.9406,2.9409,2.9427,2.9434,2.9441,2.9446,2.9467,2.9479,2.9479,2.9483,2.9495,2.9507,2.9507,2.9513,2.9523,2.9522,2.9478,2.9471,2.9466,2.9461,2.9524,2.9524,2.9569,2.9569,2.9569]}]]